[[{"header":{"parameterUnit":"m.s-1","parameterCategory":1,"la1":30.2991,"la2":30.254,"lo1":-89.0895,"lo2":-89.0444,"dx":0.0017,"dy":0.0017,"nx":28,"ny":28,"refTime":"2023-01-09T03:00:00:Z","depth":0,"parameterNumber":2,"parameterNumberName":"U-component_of_WINDS"},"data":[0,0,0,0,0,0,0,0,0,0,0,0,0,0,0,0,0,0,0,0,0,0,0,0,0,0,0,0,0,0,0,0,0,0,0,0,0,0,0,0,0,0,0,0,0,0,0,0,0,0,0,0,0,0,0,0,0,0,-1.0009,-1.001,0,-1.0115,-1.0116,-1.0118,-1.0101,-1.0099,-1.0097,-1.0096,-1.0208,-1.0213,-1.0217,0,0,0,0,0,0,0,0,0,0,0,0,0,-0.9796,-0.98,-1.0009,-1.001,-1.0012,-1.0115,-1.0116,-1.0118,-1.0101,-1.0099,-1.0097,-1.0095,-1.0207,-1.0212,-1.0218,0,0,0,0,0,0,0,0,0,0,0,0,0,-0.9894,-0.9801,-1.0009,-1.0016,-1.0017,-1.0115,-1.0116,-1.0118,-1.0102,-1.0099,-1.0096,-1.0094,-1.0205,-1.0212,-1.0218,-1.0317,0,0,-1.024,-1.0243,0,0,0,0,0,0,0,0,-0.9888,-0.9902,-1.0013,-1.0015,-1.0017,-1.0092,-1.0083,-1.0185,-1.0103,-1.007,-1.0096,-1.0092,-1.0172,-1.0181,-1.0208,-1.0322,-1.0327,-1.0241,-1.0245,-1.0248,-1.025,0,0,0,0,0,0,0,-0.9882,-0.9897,-1.0051,-1.0015,-1.0018,-1.0015,-1.0026,-1.0102,-1.0135,-1.0073,-1.0072,-1.0084,-1.0173,-1.0201,-1.021,-1.0328,-1.024,-1.0247,-1.0251,-1.0254,-1.053,-1.0533,0,0,0,0,0,0,-0.9872,-0.9892,-1.0048,-1.0054,-0.9945,-1.0021,-1.0033,-1.0071,-1.0134,-1.0141,-1.0086,-1.0083,-1.019,-1.0202,-1.0214,-1.0334,-1.0248,-1.0254,-1.0258,-1.0527,-1.0531,-1.0535,0,0,0,0,0,0,-0.9868,-0.9886,-1.0043,-0.9973,-0.9992,-1.0027,-1.007,-1.0074,-1.0103,-1.0145,-1.0151,-1.0109,-1.0188,-1.0204,-1.0291,-1.0338,-1.0258,-1.0264,-1.0524,-1.0529,-1.0533,-1.0575,0,0,0,0,0,0,-0.9862,-0.9885,-0.9922,-0.9974,-0.9996,-1.0118,-1.0073,-1.0078,-1.0114,-1.0111,-1.0167,-1.0174,-1.0187,-1.0281,-1.0298,-1.0346,-1.027,-1.052,-1.0526,-1.0531,-1.057,-1.058,-1.059,0,0,0,0,0,-0.9854,-0.993,-0.9923,-0.9942,-1.0043,-1.0121,-1.0134,-1.0146,-1.0118,-1.0156,-1.0183,-1.0172,-1.033,-1.029,-1.0309,-1.036,-1.0517,-1.0524,-1.0531,-1.0565,-1.0578,-1.0589,0,0,0,0,0,0,-0.9883,-0.9937,-0.993,-1.0024,-1.0068,-1.0118,-1.0166,-1.016,-1.0213,-1.0208,-1.0223,-1.0236,-1.0325,-1.0351,-1.0306,-1.0459,-1.042,-1.0431,-1.0439,-1.0452,-1.0462,-1.0454,-1.0275,0,0,0,0,0,-0.99,-0.9958,-1.0002,-1.0081,-1.0103,-1.0131,-1.0165,-1.0171,-1.0217,-1.0236,-1.0269,-1.0316,-1.0376,-1.0415,-1.0472,-1.0573,-1.0586,-1.0617,-1.0628,-1.0636,-1.0646,-1.0702,-1.0717,-1.0558,-1.0558,-1.0557,0,0,-0.9937,-0.9973,-1.0009,-1.0088,-1.0122,-1.0183,-1.0146,-1.0212,-1.0258,-1.0246,-1.0331,-1.0357,-1.041,-1.0505,-1.0548,-1.0529,-1.0692,-1.0645,-1.0651,-1.0656,-1.0711,-1.0726,-1.074,-1.0562,-1.0562,-1.0561,0,0,-1.0034,-1.0067,-1.0137,-1.0172,-1.0224,-1.0242,-1.0259,-1.031,-1.0327,-1.0411,-1.0405,-1.046,-1.0562,-1.0601,-1.0634,-1.0746,-1.0739,-1.0765,-1.0818,-1.0873,-1.0886,-1.0897,-1.0939,-1.0953,-1.0774,-1.0774,-1.0775,0,-1.0073,-1.0163,-1.0174,-1.024,-1.0276,-1.0268,-1.034,-1.0373,-1.0442,-1.0468,-1.0446,-1.0575,-1.061,-1.0714,-1.0742,-1.0768,-1.0789,-1.0759,-1.0883,-1.0894,-1.0905,-1.0945,-1.096,-1.0777,-1.0777,-1.0777,-1.0776,0,-1.021,-1.0272,-1.0323,-1.0389,-1.043,-1.0499,-1.0521,-1.0562,-1.0564,-1.0585,-1.0673,-1.0714,-1.078,-1.0805,-1.0809,-1.0911,-1.0898,-1.0879,-1.084,-1.0923,-1.0961,-1.0976,-1.0781,-1.078,-1.078,-1.0779,0,0,-1.0329,-1.0399,-1.0418,-1.0448,-1.0506,-1.0555,-1.0624,-1.0688,-1.0723,-1.0771,-1.0831,-1.0918,-1.0901,-1.0939,-1.0947,-1.0995,-1.1083,-1.097,-1.0972,-1.0991,-1.12,-1.1214,-1.1232,-1.1078,-1.1081,-1.1084,-1.1196,0,-1.0433,-1.0554,-1.0566,-1.0675,-1.0734,-1.0727,-1.0787,-1.083,-1.0851,-1.0906,-1.093,-1.0992,-1.0964,-1.0987,-1.1034,-1.1062,-1.1126,-1.1054,-1.1136,-1.1138,-1.1124,-1.1251,-1.1267,-1.1371,-1.1211,-1.1213,-1.1215,0,-1.0571,-1.0622,-1.0737,-1.0786,-1.0812,-1.0866,-1.0926,-1.0977,-1.1026,-1.1038,-1.108,-1.1082,-1.1155,-1.1112,-1.1213,-1.1165,-1.1199,-1.1218,-1.1222,-1.1231,-1.1182,-1.1265,-1.1404,-1.142,-1.1238,-1.1236,-1.1235,0,-1.0648,-1.0745,-1.0827,-1.0853,-1.0913,-1.0951,-1.0978,-1.1024,-1.1062,-1.1115,-1.114,-1.1201,-1.1235,-1.1283,-1.1301,-1.1268,-1.1403,-1.1361,-1.1416,-1.1416,-1.1446,-1.1444,-1.1594,-1.1466,-1.1466,-1.1465,-1.1465,0,-1.0764,-1.0834,-1.0863,-1.0913,-1.0993,-1.1006,-1.1085,-1.111,-1.1151,-1.1208,-1.1205,-1.1258,-1.1279,-1.1336,-1.1351,-1.1434,-1.1449,-1.1462,-1.1466,-1.1463,-1.1462,-1.1486,-1.148,-1.1469,-1.1469,-1.1468,-1.1467,0,-1.0864,-1.0885,-1.0974,-1.1023,-1.1037,-1.1094,-1.1137,-1.1186,-1.1207,-1.1278,-1.1296,-1.1329,-1.1396,-1.1419,-1.15,-1.151,-1.1607,-1.1604,-1.1591,-1.1592,-1.1646,-1.1641,-1.1818,-1.1843,-1.1697,-1.1699,-1.17,0,-1.0937,-1.0991,-1.1046,-1.1083,-1.1111,-1.1171,-1.1209,-1.1225,-1.1266,-1.1325,-1.1368,-1.1434,-1.1488,-1.1596,-1.1628,-1.1691,-1.169,-1.1747,-1.1699,-1.1695,-1.1692,-1.1689,-1.1695,-1.1757,-1.1758,-1.1759,-1.176,0,-1.1065,-1.1073,-1.1127,-1.1187,-1.1233,-1.128,-1.1326,-1.1357,-1.138,-1.1426,-1.1494,-1.1535,-1.1618,-1.1685,-1.1749,-1.1778,-1.1774,-1.1775,-1.1791,-1.179,-1.1781,-1.1788,-1.1616,-1.1771,-1.177,-1.1769,-1.1769,-1.1768,-1.1154,-1.1203,-1.1249,-1.1311,-1.1347,-1.139,-1.1439,-1.1466,-1.1522,-1.159,-1.1596,-1.167,-1.1719,-1.1804,-1.1837,-1.1895,-1.1879,-1.1903,-1.1909,-1.1915,-1.192,-1.177,-1.1907,-1.1907,-1.1906,-1.1906,-1.1906,0,-1.1283,-1.1313,-1.1369,-1.1433,-1.1483,-1.1472,-1.1523,-1.1565,-1.163,-1.1675,-1.1728,-1.1807,-1.1871,-1.1908,-1.1973,-1.2013,-1.2013,-1.203,-1.2028,-1.2035,-1.193,-1.191,-1.2029,-1.2029,-1.2029,-1.2029,-1.2029,-1.2029,-1.1356,-1.1438,-1.1451,-1.1551,-1.1581,-1.1652,-1.1682,-1.1723,-1.1759,-1.1846,-1.19,-1.1923,-1.1965,-1.2033,-1.2093,-1.2102,-1.2127,-1.2145,-1.2153,-1.2055,-1.2042,-1.203,-1.2011,-1.215,-1.215,-1.2254,-1.2255,-1.2256]},{"header":{"parameterUnit":"m.s-1","parameterCategory":1,"la1":30.2991,"la2":30.254,"lo1":-89.0895,"lo2":-89.0444,"dx":0.0017,"dy":0.0017,"nx":28,"ny":28,"refTime":"2023-01-09T03:00:00:Z","depth":0,"parameterNumber":3,"parameterNumberName":"V-component_of_WINDS"},"data":[0,0,0,0,0,0,0,0,0,0,0,0,0,0,0,0,0,0,0,0,0,0,0,0,0,0,0,0,0,0,0,0,0,0,0,0,0,0,0,0,0,0,0,0,0,0,0,0,0,0,0,0,0,0,0,0,0,0,-0.9292,-0.9293,0,-0.9334,-0.9334,-0.9335,-0.9346,-0.9346,-0.9346,-0.9345,-0.9389,-0.939,-0.9391,0,0,0,0,0,0,0,0,0,0,0,0,0,-0.9222,-0.9223,-0.9292,-0.9293,-0.9293,-0.9334,-0.9334,-0.9335,-0.9346,-0.9346,-0.9346,-0.9345,-0.9388,-0.939,-0.9391,0,0,0,0,0,0,0,0,0,0,0,0,0,-0.9257,-0.9223,-0.9292,-0.9304,-0.9305,-0.9334,-0.9335,-0.9335,-0.9346,-0.9346,-0.9345,-0.9345,-0.9388,-0.939,-0.9392,-0.9412,0,0,-0.9398,-0.9399,0,0,0,0,0,0,0,0,-0.9255,-0.9259,-0.9301,-0.9303,-0.9304,-0.9334,-0.9326,-0.9361,-0.9346,-0.9331,-0.9345,-0.9345,-0.9371,-0.9374,-0.9383,-0.9414,-0.9416,-0.9398,-0.9399,-0.94,-0.9401,0,0,0,0,0,0,0,-0.9252,-0.9258,-0.9309,-0.9302,-0.9304,-0.9307,-0.9311,-0.9332,-0.9352,-0.9332,-0.9333,-0.9338,-0.9372,-0.9381,-0.9384,-0.9417,-0.9398,-0.94,-0.9401,-0.9402,-0.9466,-0.9466,0,0,0,0,0,0,-0.9248,-0.9255,-0.9307,-0.931,-0.9278,-0.9308,-0.9313,-0.9325,-0.9352,-0.9356,-0.9338,-0.9338,-0.9378,-0.9382,-0.9386,-0.9411,-0.94,-0.9402,-0.9403,-0.9465,-0.9466,-0.9466,0,0,0,0,0,0,-0.9246,-0.9252,-0.9306,-0.9283,-0.929,-0.931,-0.9323,-0.9326,-0.9336,-0.9357,-0.936,-0.9344,-0.9378,-0.9383,-0.9405,-0.9413,-0.9403,-0.9405,-0.9465,-0.9465,-0.9466,-0.9462,0,0,0,0,0,0,-0.9244,-0.9252,-0.926,-0.9283,-0.9291,-0.9325,-0.9324,-0.9327,-0.9339,-0.934,-0.9363,-0.9367,-0.9378,-0.9402,-0.9407,-0.9415,-0.9407,-0.9464,-0.9465,-0.9466,-0.9461,-0.9462,-0.9463,0,0,0,0,0,-0.9242,-0.9257,-0.926,-0.9266,-0.9302,-0.9325,-0.933,-0.9342,-0.934,-0.9348,-0.9361,-0.9366,-0.9411,-0.9404,-0.941,-0.9419,-0.9464,-0.9465,-0.9466,-0.9461,-0.9462,-0.9463,0,0,0,0,0,0,-0.9235,-0.926,-0.9264,-0.9288,-0.9304,-0.9327,-0.9338,-0.9343,-0.936,-0.936,-0.9374,-0.938,-0.9401,-0.9412,-0.9404,-0.944,-0.9437,-0.9439,-0.9432,-0.9433,-0.9433,-0.943,-0.9408,0,0,0,0,0,-0.9236,-0.9253,-0.9274,-0.9293,-0.9301,-0.9318,-0.9328,-0.9336,-0.9354,-0.9361,-0.9376,-0.9393,-0.9411,-0.9422,-0.944,-0.9463,-0.9468,-0.9471,-0.9472,-0.9473,-0.9475,-0.9487,-0.9489,-0.9469,-0.9469,-0.9469,0,0,-0.9238,-0.9255,-0.9264,-0.9292,-0.9305,-0.9322,-0.9324,-0.9342,-0.9354,-0.9364,-0.9386,-0.9397,-0.9417,-0.9439,-0.945,-0.945,-0.9481,-0.9474,-0.9474,-0.9476,-0.9488,-0.949,-0.9491,-0.947,-0.947,-0.947,0,0,-0.9252,-0.9266,-0.9283,-0.9296,-0.9316,-0.9327,-0.9331,-0.9353,-0.9361,-0.9384,-0.9391,-0.9406,-0.9437,-0.945,-0.9461,-0.9479,-0.9483,-0.9484,-0.9488,-0.95,-0.9501,-0.9503,-0.9508,-0.951,-0.9486,-0.9486,-0.9486,0,-0.9253,-0.9278,-0.9291,-0.9308,-0.932,-0.9329,-0.9346,-0.9358,-0.9383,-0.9391,-0.939,-0.9428,-0.9442,-0.9467,-0.9472,-0.948,-0.9485,-0.9481,-0.95,-0.9502,-0.9503,-0.9509,-0.9511,-0.9485,-0.9485,-0.9485,-0.9485,0,-0.9278,-0.9296,-0.9307,-0.9331,-0.9343,-0.9361,-0.9375,-0.9387,-0.9393,-0.9404,-0.9426,-0.9443,-0.9464,-0.9471,-0.9478,-0.9497,-0.9496,-0.9497,-0.9495,-0.9505,-0.951,-0.9512,-0.9485,-0.9485,-0.9485,-0.9485,0,0,-0.9289,-0.9318,-0.9322,-0.9333,-0.9356,-0.937,-0.9387,-0.9407,-0.9416,-0.9433,-0.9448,-0.9473,-0.9474,-0.9486,-0.9495,-0.9505,-0.9517,-0.9505,-0.9506,-0.9506,-0.9539,-0.9538,-0.954,-0.952,-0.9521,-0.9521,-0.9537,0,-0.9305,-0.9336,-0.9347,-0.9373,-0.9389,-0.9397,-0.9412,-0.9428,-0.9438,-0.9453,-0.9465,-0.9482,-0.9483,-0.949,-0.9501,-0.9513,-0.9524,-0.9512,-0.9534,-0.9534,-0.9528,-0.9543,-0.9542,-0.9556,-0.9539,-0.954,-0.954,0,-0.9328,-0.9345,-0.9372,-0.9392,-0.9399,-0.9412,-0.9431,-0.9446,-0.9463,-0.947,-0.9483,-0.9491,-0.9509,-0.9505,-0.953,-0.9522,-0.9531,-0.9539,-0.9539,-0.9542,-0.9538,-0.9546,-0.9561,-0.9563,-0.9544,-0.9543,-0.9543,0,-0.9333,-0.9362,-0.9382,-0.9391,-0.9415,-0.9424,-0.9434,-0.9451,-0.9462,-0.9479,-0.9486,-0.9504,-0.9515,-0.9528,-0.954,-0.9537,-0.9564,-0.9561,-0.957,-0.9569,-0.9575,-0.9575,-0.9592,-0.9581,-0.9581,-0.9581,-0.9581,0,-0.935,-0.9366,-0.9384,-0.9397,-0.9415,-0.9427,-0.9445,-0.9456,-0.947,-0.9485,-0.9493,-0.9506,-0.9521,-0.9536,-0.9545,-0.9564,-0.9568,-0.9574,-0.9577,-0.9574,-0.9573,-0.958,-0.9579,-0.9582,-0.9582,-0.9582,-0.9581,0,-0.9359,-0.9372,-0.9394,-0.9414,-0.942,-0.9432,-0.9449,-0.9461,-0.9472,-0.949,-0.9495,-0.9511,-0.9529,-0.9542,-0.9565,-0.9572,-0.9592,-0.9594,-0.9586,-0.9587,-0.9594,-0.9593,-0.9617,-0.9621,-0.9607,-0.9607,-0.9607,0,-0.9369,-0.9381,-0.9403,-0.9413,-0.9423,-0.9439,-0.945,-0.9463,-0.9474,-0.9494,-0.9503,-0.9522,-0.9537,-0.9565,-0.9579,-0.9597,-0.96,-0.9607,-0.9603,-0.9599,-0.96,-0.9599,-0.96,-0.9608,-0.9608,-0.9608,-0.9608,0,-0.9385,-0.939,-0.9406,-0.9424,-0.9437,-0.9452,-0.9466,-0.9474,-0.9489,-0.9501,-0.952,-0.9531,-0.9555,-0.9573,-0.9592,-0.9602,-0.9607,-0.9609,-0.9612,-0.9609,-0.9603,-0.9606,-0.9587,-0.9608,-0.9608,-0.9608,-0.9608,-0.9608,-0.9394,-0.9406,-0.9422,-0.9439,-0.9452,-0.9465,-0.9477,-0.9489,-0.9504,-0.9524,-0.953,-0.9549,-0.9565,-0.9591,-0.9602,-0.9616,-0.9616,-0.962,-0.9621,-0.9622,-0.9622,-0.9601,-0.962,-0.962,-0.962,-0.962,-0.962,0,-0.9411,-0.9422,-0.9437,-0.9457,-0.9471,-0.9474,-0.949,-0.9501,-0.9518,-0.9532,-0.9547,-0.9568,-0.9585,-0.96,-0.9618,-0.9626,-0.9629,-0.9631,-0.963,-0.9632,-0.9621,-0.9617,-0.9628,-0.9628,-0.9628,-0.9628,-0.9628,-0.9628,-0.9421,-0.944,-0.9447,-0.9472,-0.9483,-0.9501,-0.951,-0.9522,-0.9534,-0.9557,-0.9571,-0.958,-0.9595,-0.9614,-0.963,-0.9633,-0.964,-0.964,-0.9645,-0.9634,-0.9633,-0.9632,-0.9628,-0.9642,-0.9642,-0.9655,-0.9655,-0.9655]}]]